Change the Weather History Date:

Saturday, September 29, 2012

  Actual Average Record
Temperature  
Mean Temperature 79 °F -  
Max Temperature 88 °F 71 °F 88 °F (2012)
Min Temperature 70 °F 54 °F 50 °F (2008)
Cooling Degree Days 14    
Growing Degree Days 29 (Base 50)    
Moisture  
Dew Point 54 °F    
Average Humidity 44    
Maximum Humidity 89    
Minimum Humidity 15    
Precipitation  
Precipitation 0.00 in 0.16 in - ()
Sea Level Pressure  
Sea Level Pressure 29.95 in    
Wind  
Wind Speed 11 mph ()    
Max Wind Speed 25 mph    
Max Gust Speed 30 mph    
Visibility 7.8 miles    
Events      
Averages and records for this station are not official NWS values.
T = Trace of Precipitation, MM = Missing Value Source: Averaged Metar Reports

Daily Weather History Graph

Daily Weather History Graph

Search for Another Location

Airport or City:

Trip Planner

Search our weather history database for the weather conditions in past years. The results will help you decide how hot, cold, wet, or windy it might be!

Date:

Astronomy

Sep. 29, 2012 Rise Set
Actual Time 7:05 AM CEST 6:54 PM CEST
Civil Twilight 6:37 AM CEST 7:22 PM CEST
Nautical Twilight 6:05 AM CEST 7:54 PM CEST
Astronomical Twilight 5:32 AM CEST 8:27 PM CEST
Moon 6:18 PM CEST (9/29) 6:19 AM CEST (9/29)
Length of Visible Light 12h 45m
Length of Day
11h 49m
Waxing Gibbous, 99% of the Moon is Illuminated
Sep 29
Waxing Gibbous
Sep 30
Full
Oct 8
Last Quarter
Oct 15
New
Oct 22
First Quarter

Hourly Weather History & Observations

Time (CEST) Temp. Heat Index Dew Point Humidity Pressure Visibility Wind Dir Wind Speed Gust Speed Precip Events Conditions
12:55 AM 77.0 °F - 48.2 °F 36% 29.98 in 6.2 mi East 8.1 mph - N/A   Partly Cloudy
1:55 AM 75.2 °F - 41.0 °F 29% 29.98 in 6.2 mi SSE 6.9 mph - N/A   Partly Cloudy
2:00 AM 75 °F - 42 °F 20% 29.99 in 6 mi SSE 6.9 mph - -   Scattered Clouds
3:55 AM 73.4 °F - 41.0 °F 31% 29.95 in - ESE 8.1 mph - N/A   Clear
4:55 AM 73.4 °F - 44.6 °F 36% 29.95 in - SE 8.1 mph - N/A   Clear
5:00 AM 73 °F - 44 °F 24% 29.96 in 6 mi SE 8.1 mph - -  
7:55 AM 77.0 °F - 41.0 °F 28% 29.95 in - ESE 13.8 mph - N/A   Clear
8:00 AM 77 °F - 40 °F 17% 29.96 in 12 mi ESE 13.8 mph - -   Clear
8:55 AM 77.0 °F - 44.6 °F 32% 29.95 in 6.2 mi SE 12.7 mph - N/A   Partly Cloudy
9:55 AM 78.8 °F - 48.2 °F 34% 29.98 in 6.2 mi ESE 16.1 mph - N/A   Scattered Clouds
10:55 AM 80.6 °F - 51.8 °F 37% 29.98 in 6.2 mi SE 21.9 mph - N/A   Scattered Clouds
11:00 AM 81 °F - 52 °F 26% 29.99 in 12 mi SE 21.9 mph - -   Scattered Clouds
11:55 AM 86.0 °F - 51.8 °F 31% 29.95 in 6.2 mi SE 18.4 mph 29.9 mph N/A   Scattered Clouds
12:55 PM 84.2 °F - 50.0 °F 30% 29.95 in 6.2 mi SE 19.6 mph - N/A   Scattered Clouds
2:00 PM 86 °F - 46 °F 15% 29.96 in 16 mi SE 25.3 mph - -   Scattered Clouds
2:55 PM 87.8 °F - 46.4 °F 24% 29.92 in 6.2 mi SE 23.0 mph - N/A   Partly Cloudy
3:55 PM 86.0 °F 84.2 °F 53.6 °F 33% 29.92 in 6.2 mi SSE 17.3 mph - N/A   Partly Cloudy
4:55 PM 82.4 °F 82.5 °F 59.0 °F 45% 29.92 in 6.2 mi SSE 16.1 mph - N/A   Partly Cloudy
5:00 PM 82 °F - 58 °F 34% 29.93 in 16 mi SSE 16.1 mph - -   Scattered Clouds
5:55 PM 80.6 °F 82.3 °F 64.4 °F 58% 29.92 in 6.2 mi SE 15.0 mph - N/A   Partly Cloudy
6:55 PM 78.8 °F - 66.2 °F 65% 29.92 in 6.2 mi SSE 11.5 mph - N/A   Partly Cloudy
7:55 PM 78.8 °F - 69.8 °F 74% 29.92 in 6.2 mi SE 12.7 mph - N/A   Partly Cloudy
8:00 PM 78 °F - 69 °F 67% 29.93 in 12 mi SE 12.7 mph - -   Scattered Clouds
8:55 PM 77.0 °F - 66.2 °F 69% 29.92 in 6.2 mi SSE 8.1 mph - N/A   Partly Cloudy
9:55 PM 75.2 °F - 68.0 °F 78% 29.95 in 6.2 mi SSE 9.2 mph - N/A   Partly Cloudy
10:55 PM 75.2 °F - 71.6 °F 89% 29.95 in 6.2 mi East 6.9 mph - N/A   Partly Cloudy
11:00 PM 75 °F - 71 °F 84% 29.97 in 9 mi East 6.9 mph - -   Scattered Clouds
11:55 PM 73.4 °F - 69.8 °F 88% 29.95 in 6.2 mi SSE 3.5 mph - N/A   Partly Cloudy